Vorticity
5 4 3 3 5 8 6 4 4 5 4 4 3 3 3 5 6 7 7 7 9 8 4 1 5 7 5 7 9 7 7 4 4 3 6 7 6 5 4 5 9 6 5
8 4 3 3 3 2 5 8 4 3 6 5 4 3 4 4 4 5 6 5 5 6 7 1 4 6 5 8 8 1 5 2 4 3 6 6 5 4 4 5 6 7 5
4 6 9 4 3 3 3 3 7 5 3 4 4 3 4 3 3 3 4 6 5 5 7 2 3 5 6 8 7 5 5 3 4 3 4 4 4 4 4 5 6 8 5
5 5 7 8 7 5 4 5 3 5 6 3 4 5 3 2 2 2 2 3 6 7 5 4 3 4 4 7 6 3 4 3 3 4 2 3 3 3 4 4 4 7 9
6 7 7 6 7 8 9 8 6 5 5 6 4 4 4 5 5 4 3 3 2 3 9 5 3 3 4 5 8 5 4 4 3 2 4 2 2 2 2 2 3 4 6
7 8 7 5 6 6 7 7 7 7 8 7 4 5 4 2 3 5 7 6 4 3 2 9 6 3 3 4 7 8 6 5 3 3 3 4 2 1 2 1 1 1 3
9 10 10 9 9 6 6 5 4 5 5 6 9 9 7 5 4 3 1 2 7 7 4 3 6 9 4 3 3 6 8 6 5 3 4 4 4 3 1 1 1 2 2
7 8 8 8 9 10 11 10 9 8 6 5 6 6 5 6 8 6 4 3 3 2 6 6 3 4 10 5 4 2 4 8 7 6 3 3 3 4 4 3 1 1 1
5 6 6 6 5 5 5 6 7 8 10 12 13 10 7 6 8 6 7 7 4 3 4 3 8 4 3 5 9 5 3 3 5 8 6 5 4 4 5 5 5 4 2
5 5 4 5 4 4 5 4 4 4 5 5 6 7 8 13 12 8 8 7 7 8 4 3 5 5 7 3 3 9 4 5 3 4 6 7 5 4 5 6 4 5 5
5 5 5 6 6 5 4 4 4 3 4 4 4 5 4 5 6 9 12 9 8 7 8 7 5 4 5 8 4 4 9 7 6 3 4 4 7 8 6 5 6 5 5
5 5 5 4 4 4 4 5 6 8 7 6 3 4 3 4 4 3 5 7 13 9 8 7 7 8 7 5 8 6 4 5 8 6 5 3 4 4 6 7 6 5 6
6 6 6 5 6 6 6 6 5 3 4 4 6 7 6 5 4 4 4 5 4 8 13 8 7 5 7 10 7 4 8 5 2 6 8 7 4 5 4 4 7 6 6
4 4 3 3 3 4 5 5 6 7 6 5 5 3 5 6 6 5 5 5 5 5 5 13 8 6 5 4 7 11 5 6 10 4 3 7 7 7 4 3 3 6 3
3 2 2 2 1 1 1 2 3 3 3 3 6 5 5 5 4 4 6 6 7 6 5 6 9 12 6 4 4 4 9 12 4 6 10 5 1 8 12 9 3 4 4
5 6 6 4 3 4 4 2 2 2 2 3 3 3 3 3 5 5 5 6 7 7 7 6 7 7 13 6 5 3 3 5 9 11 7 7 5 8 2 -6 9 5 7
4 4 6 5 4 4 5 5 4 4 4 4 4 3 4 4 4 4 5 5 6 7 8 10 7 5 7 13 8 5 5 3 4 5 6 9 9 4 7 27 -15 -15 12
3 3 5 5 5 5 5 5 4 5 5 4 4 5 5 5 4 5 5 4 5 6 5 6 10 11 6 5 9 11 7 6 4 6 6 5 5 7 10 0 3 7 13
4 4 5 4 4 5 5 5 4 3 3 3 4 3 4 4 4 5 5 5 5 4 7 4 6 6 11 12 7 7 10 9 9 9 8 9 8 7 7 5 8 10 6
6 5 4 4 4 3 3 3 4 4 5 4 5 4 3 4 5 5 5 5 5 4 4 7 4 4 2 7 10 10 7 6 6 6 8 10 10 12 13 13 6 4 4
9 10 8 7 6 6 5 3 4 3 5 5 7 7 7 4 2 4 4 4 5 5 6 4 4 7 3 3 5 7 10 10 9 6 4 4 4 2 3 5 12 12 10
7 8 8 9 8 7 7 8 8 7 7 7 6 7 7 7 7 8 5 4 3 4 4 5 5 4 5 6 5 4 3 8 6 9 8 9 6 8 8 8 7 8 6
8 8 9 9 10 8 8 8 8 7 7 6 6 6 6 6 5 5 5 5 6 5 3 3 5 5 4 6 7 7 3 3 3 4 3 3 5 4 4 4 5 6 7
6 7 6 7 7 7 7 7 7 7 7 8 8 7 7 7 8 10 9 4 2 8 9 4 3 2 5 3 4 8 8 7 5 0 6 -1 2 4 3 3 1 0 4
11 13 13 12 11 11 11 13 14 16 17 16 15 14 13 12 11 9 8 8 10 10 7 5 9 9 5 4 4 3 5 7 6 9 0 7 2 4 1 0 -3 -5 1
13 11 12 15 15 13 11 10 10 10 9 9 10 11 12 12 12 11 10 10 9 10 16 10 5 8 9 9 6 6 7 6 6 6 9 0 9 4 5 3 -1 -1 1
Height
5849 5850 5851 5852 5852 5853 5854 5855 5855 5856 5857 5858 5859 5859 5859 5860 5860 5860 5860 5860 5860 5860 5861 5861 5860 5860 5861 5860 5862 5863 5863 5865 5866 5866 5867 5868 5869 5870 5871 5872 5872 5873 5874
5848 5850 5850 5851 5852 5853 5854 5854 5855 5855 5856 5856 5858 5858 5858 5859 5859 5859 5859 5859 5860 5860 5860 5861 5861 5861 5861 5861 5862 5864 5865 5866 5867 5868 5868 5868 5869 5871 5871 5873 5873 5874 5874
5849 5849 5850 5850 5850 5851 5852 5853 5854 5854 5856 5856 5857 5858 5858 5859 5859 5858 5858 5858 5858 5859 5859 5860 5861 5861 5861 5862 5862 5864 5865 5866 5867 5868 5869 5869 5870 5871 5872 5873 5873 5874 5875
5849 5849 5850 5850 5850 5851 5851 5853 5853 5854 5855 5855 5856 5856 5857 5858 5858 5859 5858 5858 5858 5858 5859 5859 5860 5860 5861 5862 5862 5864 5864 5865 5866 5868 5869 5870 5871 5871 5872 5873 5874 5875 5876
5848 5849 5850 5850 5851 5852 5853 5853 5853 5854 5854 5854 5855 5856 5856 5857 5858 5858 5858 5857 5857 5857 5858 5858 5859 5859 5860 5861 5861 5862 5863 5864 5866 5867 5868 5869 5870 5870 5872 5873 5874 5875 5876
5849 5850 5849 5849 5850 5851 5851 5851 5851 5851 5851 5852 5852 5853 5854 5854 5855 5856 5856 5856 5856 5856 5857 5857 5858 5858 5859 5859 5859 5861 5861 5863 5864 5865 5866 5867 5869 5870 5871 5873 5874 5874 5875
5847 5846 5847 5847 5848 5848 5848 5849 5849 5849 5849 5850 5850 5850 5850 5850 5851 5852 5853 5854 5854 5855 5855 5855 5855 5856 5857 5858 5858 5858 5859 5860 5861 5863 5864 5866 5867 5868 5870 5872 5873 5874 5874
5845 5845 5845 5845 5845 5845 5845 5845 5845 5845 5845 5846 5846 5847 5847 5847 5847 5848 5848 5849 5850 5851 5852 5853 5853 5853 5854 5855 5856 5856 5856 5857 5859 5860 5862 5863 5864 5865 5867 5869 5870 5871 5873
5843 5844 5843 5843 5843 5843 5842 5842 5842 5842 5842 5842 5842 5842 5843 5843 5844 5844 5845 5846 5846 5846 5847 5848 5850 5851 5851 5852 5853 5854 5854 5854 5856 5857 5859 5860 5862 5863 5864 5865 5866 5868 5870
5841 5841 5841 5840 5840 5840 5839 5839 5839 5839 5839 5838 5838 5838 5837 5838 5839 5840 5841 5840 5841 5842 5843 5843 5845 5846 5847 5848 5849 5850 5850 5851 5852 5853 5855 5855 5858 5859 5860 5862 5863 5864 5865
5839 5838 5838 5837 5837 5836 5836 5836 5835 5835 5834 5834 5834 5833 5833 5833 5834 5833 5834 5835 5836 5837 5837 5838 5839 5840 5842 5843 5844 5845 5846 5847 5848 5849 5851 5851 5853 5854 5856 5857 5859 5860 5861
5836 5836 5835 5834 5833 5833 5832 5832 5831 5830 5830 5829 5829 5828 5828 5828 5828 5828 5829 5828 5829 5830 5831 5832 5833 5834 5835 5837 5839 5839 5840 5841 5842 5843 5845 5847 5848 5849 5850 5852 5854 5854 5856
5833 5832 5831 5830 5829 5828 5827 5826 5826 5826 5824 5825 5823 5823 5823 5823 5823 5823 5823 5822 5822 5823 5824 5825 5826 5827 5827 5829 5831 5833 5834 5835 5836 5837 5838 5840 5842 5844 5845 5846 5848 5849 5851
5828 5827 5826 5826 5825 5824 5823 5822 5821 5820 5819 5818 5818 5818 5818 5817 5816 5816 5816 5817 5816 5815 5816 5817 5818 5819 5820 5821 5822 5824 5826 5828 5830 5832 5833 5835 5835 5837 5839 5840 5841 5844 5846
5824 5823 5821 5820 5818 5817 5816 5816 5814 5813 5811 5811 5812 5810 5809 5809 5809 5809 5808 5808 5809 5809 5809 5808 5809 5811 5812 5813 5814 5815 5817 5820 5822 5824 5826 5827 5830 5831 5832 5833 5835 5837 5839
5818 5817 5816 5814 5813 5811 5810 5807 5805 5804 5804 5804 5804 5803 5802 5801 5801 5800 5800 5800 5800 5801 5801 5800 5800 5801 5802 5804 5805 5806 5808 5809 5813 5816 5818 5819 5821 5823 5825 5826 5828 5830 5832
5812 5810 5808 5807 5805 5804 5802 5800 5799 5796 5795 5795 5794 5793 5792 5792 5791 5790 5790 5791 5792 5791 5791 5792 5792 5793 5793 5794 5795 5797 5799 5800 5803 5805 5809 5811 5813 5815 5816 5817 5819 5821 5824
5803 5801 5799 5797 5795 5794 5792 5790 5789 5787 5786 5785 5783 5783 5782 5781 5780 5780 5780 5780 5781 5781 5781 5780 5781 5783 5783 5784 5785 5786 5788 5790 5793 5796 5799 5802 5804 5806 5808 5809 5809 5812 5817
5794 5791 5789 5787 5784 5782 5781 5779 5777 5776 5774 5773 5772 5772 5771 5770 5769 5769 5768 5768 5769 5769 5770 5770 5771 5772 5773 5774 5775 5776 5778 5780 5782 5785 5788 5791 5794 5796 5798 5799 5801 5804 5808
5783 5780 5777 5775 5773 5770 5768 5766 5764 5762 5761 5760 5759 5758 5757 5757 5756 5756 5756 5756 5756 5757 5757 5757 5758 5760 5761 5762 5763 5765 5767 5769 5771 5773 5777 5779 5783 5786 5789 5790 5792 5795 5798
5770 5768 5765 5761 5758 5756 5753 5751 5749 5747 5746 5745 5744 5743 5742 5741 5741 5742 5741 5741 5742 5743 5744 5743 5744 5746 5748 5750 5752 5753 5756 5758 5760 5763 5766 5768 5772 5776 5778 5781 5784 5786 5788
5757 5753 5750 5747 5743 5740 5737 5734 5732 5730 5728 5727 5726 5725 5724 5724 5724 5724 5725 5725 5725 5727 5727 5728 5729 5730 5733 5735 5738 5740 5744 5747 5749 5751 5754 5757 5760 5763 5767 5771 5774 5777 5779
5740 5737 5733 5730 5726 5722 5719 5716 5714 5711 5709 5708 5706 5705 5704 5704 5704 5704 5705 5705 5707 5708 5710 5710 5711 5714 5717 5720 5721 5724 5728 5733 5735 5738 5742 5745 5749 5752 5756 5759 5763 5767 5770
5725 5721 5716 5712 5708 5704 5700 5698 5695 5692 5691 5688 5686 5685 5684 5682 5682 5682 5683 5683 5685 5687 5690 5691 5692 5694 5697 5702 5703 5706 5710 5715 5719 5724 5727 5732 5736 5739 5743 5747 5751 5755 5759
5709 5703 5699 5694 5690 5686 5682 5678 5675 5673 5670 5669 5667 5665 5663 5662 5660 5659 5659 5660 5661 5663 5666 5669 5671 5673 5677 5680 5684 5687 5690 5695 5701 5705 5712 5717 5720 5725 5729 5733 5738 5743 5748
5691 5686 5681 5678 5673 5668 5664 5659 5656 5653 5650 5648 5645 5643 5641 5640 5639 5637 5635 5635 5636 5638 5640 5643 5646 5651 5654 5658 5662 5666 5671 5675 5680 5685 5691 5699 5703 5709 5713 5718 5724 5729 5734